Location: Carrières
(48.9495°N, 2.0407°E)
Time: 16:50:29
(UTC+00:00)

deb Kosmos-2227 - Visible Passes

Search period start: 07 October 2024 00:00
Search period end: 17 October 2024 00:00
Orbit: 823 x 994 km, 71.2° (Epoch: 07 October)

Date Brightness Start Highest point End Pass type
(mag) Time Alt. Az. Time Alt. Az. Time Alt. Az.
07 Oct ? 01:20:28 27° ENE 01:20:28 27° ENE 01:23:36 10° NE visible
07 Oct ? 03:03:43 44° NW 03:03:43 44° NW 03:09:20 10° NNE visible
07 Oct ? 04:46:58 10° WNW 04:50:26 15° NNW 04:54:06 10° N visible
08 Oct ? 01:25:58 29° NE 01:25:58 29° NE 01:29:06 10° NE visible
08 Oct ? 03:09:13 36° NW 03:09:13 36° NW 03:14:37 10° NNE visible
08 Oct ? 04:53:15 10° NW 04:56:15 13° NNW 04:59:15 10° N visible
09 Oct ? 01:31:25 30° NE 01:31:25 30° NE 01:34:34 10° NNE visible
09 Oct ? 03:14:40 30° NW 03:14:40 30° NW 03:19:53 10° NNE visible
09 Oct ? 04:59:52 10° NW 05:02:06 12° NNW 05:04:20 10° N visible
10 Oct ? 01:36:51 31° NNE 01:36:51 31° NNE 01:39:58 10° NNE visible
10 Oct ? 03:20:06 25° NW 03:20:06 25° NW 03:25:07 10° NNE visible
10 Oct ? 05:06:42 10° NNW 05:07:59 11° NNW 05:09:15 10° N visible
11 Oct ? 01:42:16 30° NNE 01:42:16 30° NNE 01:45:20 10° NNE visible
11 Oct ? 03:25:30 21° NW 03:25:31 21° NW 03:30:21 10° NNE visible
12 Oct ? 00:04:24 11° NE 00:04:24 11° NE 00:04:37 10° NE visible
12 Oct ? 01:47:39 28° NNE 01:47:39 28° NNE 01:50:40 10° NNE visible
12 Oct ? 03:30:53 18° NW 03:31:14 18° NNW 03:35:33 10° N visible
13 Oct ? 00:09:46 12° NE 00:09:46 12° NE 00:10:12 10° NE visible
13 Oct ? 01:53:00 26° N 01:53:00 26° N 01:55:57 10° NNE visible
13 Oct ? 03:36:15 15° NW 03:36:59 16° NNW 03:40:43 10° N visible
14 Oct ? 00:15:07 13° NE 00:15:07 13° NE 00:15:42 10° NE visible
14 Oct ? 01:58:21 24° N 01:58:21 24° N 02:01:14 10° NNE visible
14 Oct ? 03:41:35 13° NW 03:42:47 14° NNW 03:45:51 10° N visible
15 Oct ? 00:20:27 13° NNE 00:20:27 13° NNE 00:21:09 10° NNE visible
15 Oct ? 02:03:41 22° N 02:03:41 22° N 02:06:28 10° NNE visible
15 Oct ? 03:46:55 11° NW 03:48:36 12° NNW 03:50:55 10° N visible
16 Oct ? 00:25:46 14° NNE 00:25:46 14° NNE 00:26:32 10° NNE visible
16 Oct ? 02:09:00 20° N 02:09:00 20° N 02:11:42 10° NNE visible
16 Oct ? 03:53:06 10° NNW 03:54:27 11° NNW 03:55:49 10° N visible
16 Oct ? 05:42:37 10° N 05:43:26 10° NNE 05:44:14 10° NNE visible
